GLO1552 SBGR-SBFL

Flight info

Callsign GLO1552
Flight time N/A
Altitude 36000
Route EGOKI UZ92 PUBIS
Aircraft B738/M-SDFGILORW/S

Departure

Time N/A
Airport São Paulo/Guarulhos–Governor André Franco Montoro International Airport (SBGR)

Arrival

Time 2026-05-04 01:28
Airport Hercílio Luz International Airport (SBFL)
Time Latitude Longitude Altitude Speed Heading
2026-05-04 00:50 -24.57904 -47.00350 36291 ft 444 kts 202°
2026-05-04 00:51 -24.60775 -47.01439 36290 ft 440 kts 208°
2026-05-04 00:51 -24.66015 -47.04688 36293 ft 432 kts 218°
2026-05-04 00:52 -24.71070 -47.08243 36290 ft 433 kts 218°
2026-05-04 00:52 -24.76142 -47.11809 36290 ft 432 kts 218°
2026-05-04 00:53 -24.81184 -47.15373 36290 ft 432 kts 218°
2026-05-04 00:53 -24.86200 -47.18930 36290 ft 432 kts 218°
2026-05-04 00:54 -24.91263 -47.22527 36290 ft 432 kts 218°
2026-05-04 00:54 -24.96280 -47.26098 36290 ft 432 kts 218°
2026-05-04 00:55 -25.01301 -47.29672 36289 ft 432 kts 219°
2026-05-04 00:55 -25.06335 -47.33257 36285 ft 431 kts 219°
2026-05-04 00:56 -25.11349 -47.36831 36275 ft 431 kts 220°
2026-05-04 00:56 -25.16384 -47.40427 36265 ft 431 kts 220°
2026-05-04 00:57 -25.21377 -47.43998 36257 ft 431 kts 220°
2026-05-04 00:57 -25.26403 -47.47601 36249 ft 431 kts 220°
2026-05-04 00:58 -25.31407 -47.51194 36241 ft 431 kts 220°
2026-05-04 00:58 -25.36414 -47.54792 36236 ft 431 kts 220°
2026-05-04 00:59 -25.41436 -47.58405 36236 ft 431 kts 220°
2026-05-04 00:59 -25.46430 -47.62000 36236 ft 431 kts 220°
2026-05-04 01:00 -25.51451 -47.65619 36237 ft 431 kts 221°
2026-05-04 01:00 -25.56440 -47.69220 36236 ft 431 kts 221°
2026-05-04 01:01 -25.61463 -47.72847 36236 ft 431 kts 221°
2026-05-04 01:01 -25.66457 -47.76458 36236 ft 431 kts 221°
2026-05-04 01:02 -25.71476 -47.80090 36236 ft 431 kts 221°
2026-05-04 01:02 -25.76471 -47.83709 36236 ft 431 kts 221°
2026-05-04 01:03 -25.81444 -47.87316 36236 ft 431 kts 221°
2026-05-04 01:03 -25.86469 -47.90963 36236 ft 431 kts 221°
2026-05-04 01:04 -25.91479 -47.94604 36236 ft 431 kts 221°
2026-05-04 01:04 -25.96453 -47.98222 36236 ft 431 kts 221°
2026-05-04 01:05 -26.01518 -48.01785 36235 ft 435 kts 217°
2026-05-04 01:05 -26.07179 -48.04377 36238 ft 449 kts 204°
2026-05-04 01:06 -26.13184 -48.06301 36236 ft 449 kts 204°
2026-05-04 01:06 -26.19156 -48.08229 36234 ft 449 kts 204°
2026-05-04 01:06 -26.22102 -48.09166 35771 ft 442 kts 204°
2026-05-04 01:07 -26.25017 -48.10094 35047 ft 440 kts 204°
2026-05-04 01:07 -26.27972 -48.11037 34276 ft 444 kts 204°
2026-05-04 01:07 -26.30938 -48.11986 33479 ft 448 kts 204°
2026-05-04 01:07 -26.33913 -48.12931 32659 ft 446 kts 203°
2026-05-04 01:08 -26.36876 -48.13870 31816 ft 448 kts 203°
2026-05-04 01:08 -26.39861 -48.14822 30952 ft 454 kts 203°
2026-05-04 01:08 -26.42914 -48.15791 30089 ft 450 kts 202°
2026-05-04 01:08 -26.45862 -48.16721 29485 ft 441 kts 202°
2026-05-04 01:09 -26.48771 -48.17641 28846 ft 441 kts 202°
2026-05-04 01:09 -26.51738 -48.18586 28177 ft 439 kts 202°
2026-05-04 01:09 -26.54612 -48.19496 27526 ft 430 kts 202°
2026-05-04 01:09 -26.57454 -48.20395 26882 ft 423 kts 202°
2026-05-04 01:10 -26.60304 -48.21304 26236 ft 428 kts 202°
2026-05-04 01:10 -26.63132 -48.22204 25576 ft 420 kts 202°
2026-05-04 01:10 -26.65888 -48.23077 24939 ft 412 kts 202°
2026-05-04 01:10 -26.68620 -48.23946 24309 ft 411 kts 202°
2026-05-04 01:11 -26.71342 -48.24818 23669 ft 410 kts 201°
2026-05-04 01:11 -26.74050 -48.25678 23031 ft 402 kts 201°
2026-05-04 01:11 -26.76706 -48.26522 22406 ft 395 kts 201°
2026-05-04 01:11 -26.79341 -48.27366 21786 ft 400 kts 201°
2026-05-04 01:12 -26.81995 -48.28213 21149 ft 392 kts 201°
2026-05-04 01:12 -26.84583 -48.29037 20529 ft 385 kts 201°
2026-05-04 01:12 -26.87149 -48.29857 19916 ft 387 kts 201°
2026-05-04 01:12 -26.89704 -48.30676 19293 ft 382 kts 201°
2026-05-04 01:13 -26.92246 -48.31485 18676 ft 375 kts 201°
2026-05-04 01:13 -26.94710 -48.32268 18076 ft 367 kts 200°
2026-05-04 01:13 -26.97127 -48.33037 17484 ft 359 kts 200°
2026-05-04 01:13 -26.99505 -48.33790 16904 ft 356 kts 199°
2026-05-04 01:14 -27.01899 -48.34398 16314 ft 357 kts 194°
2026-05-04 01:14 -27.04463 -48.34724 15697 ft 373 kts 185°
2026-05-04 01:14 -27.07000 -48.34658 15087 ft 366 kts 180°
2026-05-04 01:14 -27.09504 -48.34516 14483 ft 357 kts 180°
2026-05-04 01:15 -27.11946 -48.34390 13893 ft 348 kts 180°
2026-05-04 01:15 -27.14335 -48.34264 13316 ft 341 kts 180°
2026-05-04 01:15 -27.16666 -48.34136 12750 ft 337 kts 179°
2026-05-04 01:15 -27.19007 -48.34008 12181 ft 339 kts 179°
2026-05-04 01:16 -27.21340 -48.33876 11605 ft 333 kts 179°
2026-05-04 01:16 -27.23596 -48.33746 11123 ft 324 kts 179°
2026-05-04 01:16 -27.25808 -48.33619 10821 ft 310 kts 179°
2026-05-04 01:16 -27.27907 -48.33497 10677 ft 294 kts 179°
2026-05-04 01:17 -27.29919 -48.33382 10552 ft 292 kts 179°
2026-05-04 01:17 -27.31889 -48.33270 10366 ft 280 kts 179°
2026-05-04 01:17 -27.33809 -48.33159 10050 ft 274 kts 179°
2026-05-04 01:17 -27.35678 -48.33052 9702 ft 270 kts 179°
2026-05-04 01:18 -27.37534 -48.32946 9362 ft 266 kts 179°
2026-05-04 01:18 -27.39389 -48.32840 9027 ft 269 kts 179°
2026-05-04 01:18 -27.41238 -48.32735 8686 ft 267 kts 179°
2026-05-04 01:18 -27.43071 -48.32628 8352 ft 263 kts 179°
2026-05-04 01:19 -27.44903 -48.32523 8019 ft 264 kts 179°
2026-05-04 01:19 -27.46744 -48.32418 7679 ft 264 kts 179°
2026-05-04 01:19 -27.48545 -48.32314 7347 ft 260 kts 179°
2026-05-04 01:19 -27.50349 -48.32209 6949 ft 260 kts 179°
2026-05-04 01:20 -27.52141 -48.32106 6484 ft 261 kts 179°
2026-05-04 01:20 -27.53951 -48.32002 6074 ft 260 kts 179°
2026-05-04 01:20 -27.55766 -48.31897 5661 ft 260 kts 179°
2026-05-04 01:20 -27.57547 -48.31794 5263 ft 258 kts 178°
2026-05-04 01:21 -27.59321 -48.31691 4957 ft 253 kts 178°
2026-05-04 01:21 -27.61055 -48.31590 4747 ft 245 kts 178°
2026-05-04 01:21 -27.62710 -48.31494 4574 ft 236 kts 178°
2026-05-04 01:21 -27.64320 -48.31401 4418 ft 227 kts 178°
2026-05-04 01:22 -27.65874 -48.31311 4180 ft 224 kts 178°
2026-05-04 01:22 -27.67403 -48.31276 4044 ft 214 kts 188°
2026-05-04 01:22 -27.68750 -48.31833 3853 ft 206 kts 213°
2026-05-04 01:22 -27.69949 -48.32701 3661 ft 201 kts 213°
2026-05-04 01:23 -27.71116 -48.33513 3470 ft 193 kts 213°
2026-05-04 01:23 -27.72242 -48.34288 3286 ft 186 kts 213°
2026-05-04 01:23 -27.73313 -48.35022 3119 ft 178 kts 213°
2026-05-04 01:23 -27.74365 -48.35742 2963 ft 175 kts 213°
2026-05-04 01:24 -27.75293 -48.36605 2795 ft 174 kts 237°
2026-05-04 01:24 -27.75621 -48.37867 2649 ft 169 kts 275°
2026-05-04 01:24 -27.75250 -48.39052 2499 ft 154 kts 302°
2026-05-04 01:24 -27.74694 -48.40044 2352 ft 148 kts 301°
2026-05-04 01:25 -27.74154 -48.41048 2233 ft 148 kts 301°
2026-05-04 01:25 -27.73644 -48.41993 2080 ft 139 kts 301°
2026-05-04 01:25 -27.73138 -48.42932 1958 ft 140 kts 301°
2026-05-04 01:25 -27.72632 -48.43869 1826 ft 139 kts 301°
2026-05-04 01:26 -27.72127 -48.44805 1696 ft 139 kts 301°
2026-05-04 01:26 -27.71629 -48.45730 1527 ft 140 kts 301°
2026-05-04 01:26 -27.71132 -48.46654 1354 ft 133 kts 301°
2026-05-04 01:26 -27.70660 -48.47532 1153 ft 128 kts 301°
2026-05-04 01:27 -27.70196 -48.48394 1000 ft 129 kts 301°
2026-05-04 01:27 -27.69729 -48.49262 818 ft 129 kts 301°
2026-05-04 01:27 -27.69265 -48.50122 649 ft 129 kts 301°
2026-05-04 01:27 -27.68799 -48.50988 478 ft 129 kts 301°
2026-05-04 01:28 -27.68341 -48.51838 362 ft 125 kts 301°
2026-05-04 01:28 -27.67880 -48.52699 163 ft 127 kts 301°
2026-05-04 01:28 -27.67425 -48.53527 25 ft 117 kts 302°
2026-05-04 01:28 -27.67118 -48.54109 23 ft 46 kts 301°
2026-05-04 01:29 -27.67000 -48.54324 23 ft 16 kts 301°
2026-05-04 01:29 -27.66950 -48.54418 23 ft 11 kts 300°
2026-05-04 01:29 -27.66944 -48.54484 23 ft 7 kts 231°
2026-05-04 01:29 -27.66974 -48.54509 23 ft 3 kts 206°
2026-05-04 01:30 -27.67000 -48.54525 23 ft 5 kts 210°
2026-05-04 01:30 -27.67053 -48.54564 23 ft 11 kts 213°
2026-05-04 01:30 -27.67109 -48.54607 23 ft 7 kts 210°
2026-05-04 01:30 -27.67146 -48.54618 23 ft 4 kts 181°
2026-05-04 01:31 -27.67181 -48.54608 23 ft 5 kts 154°
2026-05-04 01:31 -27.67201 -48.54590 24 ft 1 kts 134°
2026-05-04 01:31 -27.67213 -48.54572 25 ft 5 kts 125°
2026-05-04 01:31 -27.67229 -48.54552 26 ft 1 kts 185°
2026-05-04 01:32 -27.67238 -48.54557 27 ft 0 kts 206°
2026-05-04 01:32 -27.67251 -48.54565 27 ft 1 kts 210°
2026-05-04 01:32 -27.67260 -48.54572 28 ft 0 kts 211°